Regional Weather Roundup
Issued by NWS Kansas City/Pleasant Hill, MO

Home | Current Version | Previous Version | Text Only | Print | Product List | Glossary On
Versions: 1 2 3 4 5 6 7 8 9 10 11 12 13 14 15 16 17 18 19 20 21 22 23 24 25 26 27 28 29 30 31 32 33 34 35 36 37 38 39 40 41 42 43 44 45 46 47 48 49 50
000
ASUS43 KEAX 260810
RWREAX

WEATHER ROUNDUP FOR EASTERN KANSAS AND NORTHWEST MISSOURI
NATIONAL WEATHER SERVICE KANSAS CITY/PLEASANT HILL MO
300 AM CDT SAT JUL 26 2014

KSZ040-057-103>105-MOZ028-029-037-043-260900-
...KANSAS CITY METROPOLITAN AREA...

CITY           SKY/WX    TMP DP  RH WIND       PRES   REMARKS
K.C. INTL      CLEAR     80  72  76 SW14      29.80S
K.C. DOWNTOWN  CLEAR     84  71  65 SW17      29.79S
LEES SUMMIT    CLEAR     80  71  74 SW15      29.83S
OLATHE - IXD   CLEAR     81  71  71 S16G28    29.83S
OLATHE - OJC   CLEAR     79  71  76 SW9       29.82S
LAWRENCE       CLEAR     83  71  67 SW9       29.80F

$$

MOZ001>008-011>017-020>025-030>033-038>040-044>046-053-054-260900-
...NORTHERN AND CENTRAL MISSOURI...

CITY           SKY/WX    TMP DP  RH WIND       PRES   REMARKS
ST. JOSEPH     CLEAR     76  73  91 CALM      29.78S
MOSBY          SUNNY     81  72  74 S5        29.79F
WHITEMAN AFB   CLEAR     78  64  60 SW13      29.83S
CLINTON        CLEAR     79  73  83 SW7       29.85S
SEDALIA        CLEAR     80  70  71 SW16      29.84F
WARSAW         NOT AVBL
MARSHALL       CLEAR     81  73  78 SW8       29.82S
CHILLICOTHE      N/A     78  73  84 S3        29.80S
MOBERLY        CLEAR     77  68  73 S7        29.83S
KIRKSVILLE     CLEAR     74  71  91 S8        29.81F

$$

MOZ041-047>049-056>058-063>065-088>090-097-260900-
...EASTERN AND SOUTHERN MISSOURI...

CITY           SKY/WX    TMP DP  RH WIND       PRES   REMARKS
ST. LOUIS INTL MOCLDY    73  65  75 SE6       29.90S
SPIRIT OF STL  MOCLDY    74  67  78 CALM      29.87F
COLUMBIA       CLEAR     74  71  91 S8        29.86S
JEFFERSON CITY CLEAR     76  70  82 SE5       29.85S
MEXICO         CLEAR     75  75 100 S10       29.84F
HANNIBAL       CLEAR     75  66  73 S10       29.83S
ROLLA          CLEAR     73  69  87 S15       29.89S
LEBANON        PTCLDY    75  70  83 S9        29.92F
OSAGE BEACH    PTCLDY    73  70  88 S5        29.88S
SPRINGFIELD    PTCLDY    74  70  87 S9        29.92S
BRANSON        CLEAR     73  72  94 S6        29.95F
JOPLIN         CLEAR     78  71  79 SW14      29.89S
WEST PLAINS    CLEAR     71  68  90 S3        29.98S

$$

IAZ060-094-KSZ022-034>040-054-083-096-NEZ052-066-093-260900-
...KANSAS...SOUTHEAST NEBRASKA AND IOWA...

CITY           SKY/WX    TMP DP  RH WIND       PRES   REMARKS
TOPEKA         CLEAR     84  73  69 S9        29.79S HX  90
MANHATTAN      CLEAR     83  69  62 SW14      29.78S
EMPORIA        PTCLDY    80  68  66 S15       29.83S
CHANUTE        CLEAR     78  72  81 S12       29.86F
WICHITA        PTCLDY    79  66  64 S12       29.86R
OMAHA          MOCLDY    75  71  87 CALM      29.80F
LINCOLN        PTCLDY    78  75  90 N3        29.80F
FALLS CITY     CLEAR     81  70  69 SW5       29.78R
LAMONI         PTCLDY    75  72  90 SW9       29.78S
DES MOINES     PTCLDY    72  68  87 NE6       29.79S

$$




USA.gov is the U.S. government's official web portal to all federal, state and local government web resources and services.